Weather History for Coral Harbour, NU

Change the Weather History Date:

Tuesday, January 29, 2013

  Actual Average Record
Temperature  
Mean Temperature -14 °F -  
Max Temperature -9 °F -14 °F 15 °F (2000)
Min Temperature -17 °F -29 °F -47 °F (1998)
Degree Days  
Heating Degree Days 79    
Moisture  
Dew Point -23 °F    
Average Humidity 59    
Maximum Humidity 70    
Minimum Humidity 44    
Precipitation  
Precipitation 0.00 in 0.01 in - ()
Sea Level Pressure  
Sea Level Pressure 29.96 in    
Wind  
Wind Speed 5 mph ()    
Max Wind Speed 12 mph    
Max Gust Speed -    
Visibility 14.9 miles    
Events Snow    
Averages and records for this station are not official NWS values.
T = Trace of Precipitation, MM = Missing Value Source: Averaged Metar Reports

Daily Weather History Graph

Daily Weather History Graph

Search for Another Location

Airport:

Trip Planner

Search our weather history database for the weather conditions in past years. The results will help you decide how hot, cold, wet, or windy it might be!

Date:

Astronomy

Jan. 29, 2013 Rise Set
Actual Time 9:22 AM EST 4:11 PM EST
Civil Twilight 8:23 AM EST 5:10 PM EST
Nautical Twilight 7:23 AM EST 6:10 PM EST
Astronomical Twilight 6:27 AM EST 7:06 PM EST
Moon 8:35 PM EST (1/29) 9:01 AM EST (1/29)
Length of Visible Light 8h 46m
Length of Day
6h 49m
Waning Gibbous, 94% of the Moon is Illuminated
Jan 29
Waning Gibbous
Feb 3
Last Quarter
Feb 10
New
Feb 17
First Quarter
Feb 25
Full

Hourly Weather History & Observations

Time (EST) Temp. Windchill Dew Point Humidity Pressure Visibility Wind Dir Wind Speed Gust Speed Precip Events Conditions
12:00 AM -7.6 °F - -16.6 °F 65% 30.02 in 15.0 mi Calm Calm - N/A Snow Light Snow
1:00 AM -10 °F - -19 °F 47% 30.01 in 15 mi NNW 3.5 mph - - Snow Light Snow
1:00 AM -9.4 °F -18.6 °F -20.2 °F 59% 30.01 in 15.0 mi NNW 3.5 mph - N/A Snow Light Snow
2:00 AM -9.4 °F -20.9 °F -20.2 °F 59% 30.02 in 15.0 mi North 4.6 mph - N/A Snow Light Snow
3:00 AM -9.4 °F - -20.2 °F 59% 30.02 in 15.0 mi Calm Calm - N/A Snow Light Snow
4:00 AM -11.2 °F -23.0 °F -20.2 °F 64% 30.01 in 15.0 mi NW 4.6 mph - N/A Snow Light Snow
5:00 AM -11.2 °F - -22.0 °F 59% 30.01 in 15.0 mi NW 2.3 mph - N/A Snow Light Snow
6:00 AM -11.2 °F - -20.2 °F 64% 30.00 in 15.0 mi Calm Calm - N/A Snow Light Snow
7:00 AM -11 °F - -20 °F 48% 29.99 in 15 mi NW 4.6 mph - - Snow Light Snow
8:00 AM -13.0 °F -27.0 °F -20.2 °F 70% 29.99 in 15.0 mi NW 5.8 mph - N/A   Partly Cloudy
9:00 AM -14.8 °F -34.6 °F -25.6 °F 58% 29.98 in 15.0 mi NNW 10.4 mph - N/A   Partly Cloudy
10:00 AM -16.6 °F -34.4 °F -25.6 °F 64% 29.99 in 15.0 mi North 8.1 mph - N/A   Mostly Cloudy
11:00 AM -13.0 °F -31.3 °F -23.8 °F 59% 29.98 in 15.0 mi NNW 9.2 mph - N/A   Overcast
12:00 PM -13.0 °F -30.0 °F -22.0 °F 64% 29.97 in 15.0 mi NW 8.1 mph - N/A   Overcast
1:00 PM -15 °F - -25 °F 44% 29.96 in 15 mi North 11.5 mph - - Snow Snow
1:00 PM -14.8 °F -35.6 °F -25.6 °F 58% 29.96 in 15.0 mi North 11.5 mph - N/A   Overcast
2:00 PM -14.8 °F -35.6 °F -23.8 °F 64% 29.95 in 15.0 mi North 11.5 mph - N/A   Overcast
3:00 PM -14.8 °F -35.6 °F -25.6 °F 58% 29.94 in 15.0 mi North 11.5 mph - N/A   Mostly Cloudy
4:00 PM -14.8 °F -34.6 °F -25.6 °F 58% 29.93 in 15.0 mi NNW 10.4 mph - N/A   Mostly Cloudy
5:00 PM -16.6 °F -37.9 °F -27.4 °F 58% 29.92 in 15.0 mi NNW 11.5 mph - N/A   Mostly Cloudy
6:00 PM -16.6 °F -29.3 °F -27.4 °F 58% 29.92 in 15.0 mi NE 4.6 mph - N/A   Scattered Clouds
7:00 PM -17 °F - -26 °F 46% 29.91 in 15 mi NNE 6.9 mph - - Snow Snow
7:00 PM -16.6 °F -32.9 °F -25.6 °F 64% 29.91 in 15.0 mi NNE 6.9 mph - N/A   Scattered Clouds
8:00 PM -14.8 °F -27.2 °F -23.8 °F 64% 29.90 in 15.0 mi North 4.6 mph - N/A   Mostly Cloudy
8:18 PM - - - N/A% - 15.0 mi North 5.8 mph - N/A   Unknown
9:00 PM -11.2 °F -20.6 °F -20.2 °F 64% 29.88 in 12.0 mi North 3.5 mph - N/A Snow Light Snow
11:00 PM -9.4 °F -22.7 °F -20.2 °F 59% 29.85 in 15.0 mi North 5.8 mph - N/A Snow Light Snow